Time,TemperatureF,DewpointF,PressureIn,WindDirection,WindDirectionDegrees,WindSpeedMPH,WindSpeedGustMPH,Humidity,HourlyPrecipIn,Conditions,Clouds,dailyrainin,SolarRadiationWatts/m^2,SoftwareType,DateUTC
2013-06-29 00:00:00,62.0,61.0,-100.00,West,270,0.0,-999.0,94,-99.99,,,-99.99,0.000000,,2013-06-29 04:00:00,
2013-06-29 00:32:00,62.0,61.0,-100.00,West,270,0.0,-999.0,94,-99.99,,,-99.99,0.000000,,2013-06-29 04:32:00,
2013-06-29 00:41:00,62.0,61.0,-100.00,West,270,0.0,-999.0,94,-99.99,,,-99.99,0.000000,,2013-06-29 04:41:00,
2013-06-29 00:51:00,62.0,61.0,-100.00,West,270,0.0,-999.0,94,-99.99,,,-99.99,0.000000,,2013-06-29 04:51:00,
2013-06-29 01:00:00,61.0,60.0,-100.00,West,270,0.0,-999.0,95,-99.99,,,-99.99,0.000000,,2013-06-29 05:00:00,
2013-06-29 01:42:00,61.0,60.0,-100.00,West,270,0.0,-999.0,95,-99.99,,,-99.99,0.000000,,2013-06-29 05:42:00,
2013-06-29 01:52:00,61.0,60.0,-100.00,West,270,0.0,-999.0,95,-99.99,,,-99.99,0.000000,,2013-06-29 05:52:00,
2013-06-29 02:00:00,60.0,59.0,-100.00,SE,135,0.0,-999.0,95,-99.99,,,-99.99,0.000000,,2013-06-29 06:00:00,
2013-06-29 02:43:00,60.0,59.0,-100.00,SE,135,0.0,-999.0,95,-99.99,,,-99.99,0.000000,,2013-06-29 06:43:00,
2013-06-29 02:53:00,60.0,59.0,-100.00,SE,135,0.0,-999.0,95,-99.99,,,-99.99,0.000000,,2013-06-29 06:53:00,
2013-06-29 03:00:00,60.0,59.0,-100.00,NW,315,0.0,-999.0,96,-99.99,,,-99.99,0.000000,,2013-06-29 07:00:00,
2013-06-29 03:43:00,60.0,59.0,-100.00,NW,315,0.0,-999.0,96,-99.99,,,-99.99,0.000000,,2013-06-29 07:43:00,
2013-06-29 03:53:00,60.0,59.0,-100.00,NW,315,0.0,-999.0,96,-99.99,,,-99.99,0.000000,,2013-06-29 07:53:00,
2013-06-29 04:00:00,61.0,60.0,-100.00,WSW,247,0.0,-999.0,96,-99.99,,,-99.99,0.000000,,2013-06-29 08:00:00,
2013-06-29 04:43:00,61.0,60.0,-100.00,WSW,247,0.0,-999.0,96,-99.99,,,-99.99,0.000000,,2013-06-29 08:43:00,
2013-06-29 04:52:00,61.0,60.0,-100.00,WSW,247,0.0,-999.0,96,-99.99,,,-99.99,0.000000,,2013-06-29 08:52:00,
2013-06-29 05:00:00,62.0,61.0,-100.00,WSW,247,1.0,-999.0,96,-99.99,,,-99.99,0.000000,,2013-06-29 09:00:00,
2013-06-29 05:42:00,62.0,61.0,-100.00,WSW,247,1.0,-999.0,96,-99.99,,,-99.99,0.000000,,2013-06-29 09:42:00,
2013-06-29 05:53:00,62.0,61.0,-100.00,WSW,247,1.0,-999.0,96,-99.99,,,-99.99,0.000000,,2013-06-29 09:53:00,
2013-06-29 06:00:00,62.0,61.0,-100.00,SW,225,1.0,-999.0,96,-99.99,,,-99.99,0.000000,,2013-06-29 10:00:00,
2013-06-29 06:43:00,62.0,61.0,-100.00,SW,225,1.0,-999.0,96,-99.99,,,-99.99,0.000000,,2013-06-29 10:43:00,
2013-06-29 06:53:00,62.0,61.0,-100.00,SW,225,1.0,-999.0,96,-99.99,,,-99.99,0.000000,,2013-06-29 10:53:00,
2013-06-29 07:00:00,62.0,61.0,-100.00,WSW,247,1.0,-999.0,97,-99.99,,,-99.99,9.280000,,2013-06-29 11:00:00,
2013-06-29 07:43:00,62.0,61.0,-100.00,WSW,247,1.0,-999.0,97,-99.99,,,-99.99,9.280000,,2013-06-29 11:43:00,
2013-06-29 07:53:00,62.0,61.0,-100.00,WSW,247,1.0,-999.0,97,-99.99,,,-99.99,9.280000,,2013-06-29 11:53:00,
2013-06-29 08:00:00,62.0,61.0,-100.00,ENE,67,1.0,-999.0,97,-99.99,,,-99.99,51.040001,,2013-06-29 12:00:00,
2013-06-29 08:43:00,62.0,61.0,-100.00,ENE,67,1.0,-999.0,97,-99.99,,,-99.99,51.040001,,2013-06-29 12:43:00,
2013-06-29 08:53:00,62.0,61.0,-100.00,ENE,67,1.0,-999.0,97,-99.99,,,-99.99,51.040001,,2013-06-29 12:53:00,
2013-06-29 09:00:00,63.0,62.0,-100.00,East,90,2.0,-999.0,96,-99.99,,,-99.99,151.960007,,2013-06-29 13:00:00,
2013-06-29 10:00:00,65.0,62.0,-100.00,ESE,112,1.0,-999.0,92,-99.99,,,-99.99,178.639999,,2013-06-29 14:00:00,
2013-06-29 10:45:00,65.0,62.0,-100.00,ESE,112,1.0,-999.0,92,-99.99,,,-99.99,178.639999,,2013-06-29 14:45:00,
2013-06-29 10:53:00,65.0,62.0,-100.00,ESE,112,1.0,-999.0,92,-99.99,,,-99.99,178.639999,,2013-06-29 14:53:00,
2013-06-29 11:00:00,68.0,62.0,-100.00,East,90,2.0,-999.0,81,-99.99,,,-99.99,348.000000,,2013-06-29 15:00:00,
2013-06-29 11:33:00,68.0,62.0,-100.00,East,90,2.0,-999.0,81,-99.99,,,-99.99,348.000000,,2013-06-29 15:33:00,
2013-06-29 11:42:00,68.0,62.0,-100.00,East,90,2.0,-999.0,81,-99.99,,,-99.99,348.000000,,2013-06-29 15:42:00,
2013-06-29 11:53:00,68.0,62.0,-100.00,East,90,2.0,-999.0,81,-99.99,,,-99.99,348.000000,,2013-06-29 15:53:00,
2013-06-29 12:00:00,72.0,62.0,-100.00,ESE,112,3.0,-999.0,71,-99.99,,,-99.99,426.880005,,2013-06-29 16:00:00,
2013-06-29 12:34:00,72.0,62.0,-100.00,ESE,112,3.0,-999.0,71,-99.99,,,-99.99,426.880005,,2013-06-29 16:34:00,
2013-06-29 12:43:00,72.0,62.0,-100.00,ESE,112,3.0,-999.0,71,-99.99,,,-99.99,426.880005,,2013-06-29 16:43:00,
2013-06-29 12:53:00,72.0,62.0,-100.00,ESE,112,3.0,-999.0,71,-99.99,,,-99.99,426.880005,,2013-06-29 16:53:00,
2013-06-29 13:00:00,75.0,62.0,-100.00,SE,135,4.0,-999.0,63,-99.99,,,-99.99,602.039978,,2013-06-29 17:00:00,
2013-06-29 13:34:00,75.0,62.0,-100.00,SE,135,4.0,-999.0,63,-99.99,,,-99.99,602.039978,,2013-06-29 17:34:00,
2013-06-29 13:42:00,75.0,62.0,-100.00,SE,135,4.0,-999.0,63,-99.99,,,-99.99,602.039978,,2013-06-29 17:42:00,
2013-06-29 13:53:00,75.0,62.0,-100.00,SE,135,4.0,-999.0,63,-99.99,,,-99.99,602.039978,,2013-06-29 17:53:00,
2013-06-29 14:00:00,76.0,62.0,-100.00,SSE,157,3.0,-999.0,61,-99.99,,,-99.99,523.159973,,2013-06-29 18:00:00,
2013-06-29 14:43:00,76.0,62.0,-100.00,SSE,157,3.0,-999.0,61,-99.99,,,-99.99,523.159973,,2013-06-29 18:43:00,
2013-06-29 14:53:00,76.0,62.0,-100.00,SSE,157,3.0,-999.0,61,-99.99,,,-99.99,523.159973,,2013-06-29 18:53:00,
2013-06-29 15:00:00,74.0,64.0,-100.00,SW,225,5.0,-999.0,72,-99.99,,,-99.99,479.079987,,2013-06-29 19:00:00,
2013-06-29 15:43:00,74.0,64.0,-100.00,SW,225,5.0,-999.0,72,-99.99,,,-99.99,479.079987,,2013-06-29 19:43:00,
2013-06-29 15:54:00,74.0,64.0,-100.00,SW,225,5.0,-999.0,72,-99.99,,,-99.99,479.079987,,2013-06-29 19:54:00,
2013-06-29 16:00:00,73.0,64.0,-100.00,West,270,5.0,-999.0,74,-99.99,,,-99.99,441.959991,,2013-06-29 20:00:00,
2013-06-29 16:43:00,73.0,64.0,-100.00,West,270,5.0,-999.0,74,-99.99,,,-99.99,441.959991,,2013-06-29 20:43:00,
2013-06-29 16:52:00,73.0,64.0,-100.00,West,270,5.0,-999.0,74,-99.99,,,-99.99,441.959991,,2013-06-29 20:52:00,
2013-06-29 17:42:00,65.0,62.0,-100.00,West,270,4.0,-999.0,90,0.28,,,-99.99,62.639999,,2013-06-29 21:42:00,
2013-06-29 17:52:00,65.0,62.0,-100.00,West,270,4.0,-999.0,90,0.28,,,-99.99,62.639999,,2013-06-29 21:52:00,
2013-06-29 19:00:00,66.0,65.0,-100.00,West,270,3.0,-999.0,94,-99.99,,,-99.99,80.040001,,2013-06-29 23:00:00,
2013-06-29 19:34:00,66.0,65.0,-100.00,West,270,3.0,-999.0,94,-99.99,,,-99.99,80.040001,,2013-06-29 23:34:00,
2013-06-29 19:43:00,66.0,65.0,-100.00,West,270,3.0,-999.0,94,-99.99,,,-99.99,80.040001,,2013-06-29 23:43:00,
2013-06-29 19:53:00,66.0,65.0,-100.00,West,270,3.0,-999.0,94,-99.99,,,-99.99,80.040001,,2013-06-29 23:53:00,
2013-06-29 21:00:00,66.0,63.0,-100.00,ENE,67,4.0,-999.0,90,-99.99,,,-99.99,34.799999,,2013-06-30 01:00:00,
2013-06-29 21:44:00,66.0,63.0,-100.00,ENE,67,4.0,-999.0,90,-99.99,,,-99.99,34.799999,,2013-06-30 01:44:00,
2013-06-29 21:53:00,66.0,63.0,-100.00,ENE,67,4.0,-999.0,90,-99.99,,,-99.99,34.799999,,2013-06-30 01:53:00,
2013-06-29 22:00:00,65.0,61.0,-100.00,NE,45,2.0,-999.0,88,-99.99,,,-99.99,3.480000,,2013-06-30 02:00:00,
2013-06-29 22:43:00,65.0,61.0,-100.00,NE,45,2.0,-999.0,88,-99.99,,,-99.99,3.480000,,2013-06-30 02:43:00,
2013-06-29 22:53:00,65.0,61.0,-100.00,NE,45,2.0,-999.0,88,-99.99,,,-99.99,3.480000,,2013-06-30 02:53:00,
2013-06-29 23:00:00,64.0,61.0,-100.00,NNE,22,1.0,-999.0,90,-99.99,,,-99.99,0.000000,,2013-06-30 03:00:00,
2013-06-29 23:43:00,64.0,61.0,-100.00,NNE,22,1.0,-999.0,90,-99.99,,,-99.99,0.000000,,2013-06-30 03:43:00,
2013-06-29 23:53:00,64.0,61.0,-100.00,NNE,22,1.0,-999.0,90,-99.99,,,-99.99,0.000000,,2013-06-30 03:53:00,